Terminal Aerodrome Forecast
Issued by NWS

Home | Current Version | Previous Version | Text Only | Print | Product List | Glossary On
Versions: 1 2 3 4 5 6 7 8 9 10 11 12 13 14 15 16 17 18 19 20 21 22 23 24 25 26 27 28 29 30
000
FTUS45 KSLC 221728
TAFPVU
TAF
KPVU 221728Z 2218/2318 14004KT P6SM SCT130
     FM222000 19012KT P6SM SCT100 SCT150
     FM230100 33010KT 6SM -RA VCTS BKN050CB OVC080
     FM231000 VRB05KT P6SM -SHRA BKN050
      AMD LTD TO CLD VIS AND WIND=

USA.gov is the U.S. government's official web portal to all federal, state and local government web resources and services.